DateTimeUTC,F1_A11,F1_S11,BsB_S11,BsG_S11,BsR_S11,BbsB_S11,BbsG_S11,BbsR_S11,BaB_A11,BaG_A11,BaR_A11,Tu_S11,T_S11,Uu_S11,U_S11,P_S11,T1_A11
2021-08-08T03:00:00Z,00000200,20000000,,,,,,,-000.28,-000.09,-000.02,18.3,25.2,06.2,04.1,0666.0,31.0
2021-08-08T03:01:00Z,00000200,20000000,,,,,,,-000.14,-000.20,-000.22,18.3,25.2,06.3,04.1,0666.0,31.0
2021-08-08T03:02:00Z,00000200,20000000,,,,,,,-000.22,0000.03,0000.18,18.3,25.2,06.3,04.1,0666.0,31.0
2021-08-08T03:03:00Z,00000200,60000000,,,,,,,0000.77,0000.41,0000.52,18.3,25.2,06.3,04.1,0665.9,31.0
2021-08-08T03:04:00Z,00000200,40000000,0002.36,0001.39,0001.15,0000.86,-000.10,0000.29,0000.10,0000.94,0000.21,18.4,25.0,06.4,04.3,0666.9,31.0
2021-08-08T03:05:00Z,00000200,00000000,0001.41,0001.67,0001.02,0000.53,-000.17,0000.47,0000.38,-000.03,0000.36,18.5,25.0,06.3,04.3,0666.9,31.0
2021-08-08T03:06:00Z,00000200,00000000,0001.72,0001.26,0000.96,0000.31,-000.01,0000.42,0000.64,0000.37,0000.42,18.5,24.9,06.4,04.3,0667.0,31.0
2021-08-08T03:07:00Z,00000200,00000000,0001.20,0001.36,0001.05,0000.66,0000.13,0000.28,0000.16,0000.11,0000.16,18.5,24.9,06.5,04.4,0666.9,31.0
2021-08-08T03:08:00Z,00000200,00000000,0002.07,0001.34,0001.11,0000.24,0000.14,0000.34,0000.42,0000.67,-000.18,18.5,24.9,06.5,04.4,0666.8,31.0
2021-08-08T03:09:00Z,00000200,00000000,0002.15,0001.58,0001.16,0000.61,0000.15,0000.34,0000.14,0000.51,0000.81,18.6,25.0,06.4,04.3,0666.9,31.0
2021-08-08T03:10:00Z,00000200,00000000,0001.31,0001.77,0000.99,0000.04,-000.18,0000.37,0000.75,0000.12,0000.08,18.7,25.0,06.5,04.4,0666.9,31.1
2021-08-08T03:11:00Z,00000200,00000000,0002.12,0001.46,0001.07,0000.10,0000.13,0000.30,0000.45,0000.44,0000.22,18.7,25.1,06.4,04.3,0666.9,31.1
2021-08-08T03:12:00Z,00000200,00000000,0002.05,0001.54,0000.81,0000.54,-000.25,0000.60,0000.25,0000.11,0000.53,18.7,25.1,06.4,04.3,0666.9,31.1
2021-08-08T03:13:00Z,00000200,00000000,0000.78,0001.53,0001.13,0000.23,0000.11,0000.67,0000.36,0000.45,0000.19,18.8,25.1,06.4,04.3,0666.9,31.1
2021-08-08T03:14:00Z,00000200,00000000,0001.97,0001.62,0001.06,-000.10,-000.01,0000.49,0000.70,0000.52,0000.31,18.8,25.1,06.3,04.3,0666.9,31.0
2021-08-08T03:15:00Z,00000200,00000000,0002.11,0001.51,0000.97,0000.17,0000.18,0000.27,-000.09,0000.04,0000.07,18.7,25.1,06.3,04.3,0666.8,31.0
2021-08-08T03:16:00Z,00000200,00000000,0002.16,0001.37,0000.76,0000.07,0000.16,0000.65,0000.27,0000.40,0000.81,18.7,25.0,06.4,04.3,0666.9,31.1
2021-08-08T03:17:00Z,00000200,00000000,0002.11,0001.29,0000.90,0000.60,0000.09,0000.32,0000.33,0000.20,-000.23,18.7,25.0,06.4,04.4,0666.8,31.0
2021-08-08T03:18:00Z,00000200,00000000,0001.40,0001.40,0000.73,0000.55,0000.14,0000.08,0000.45,0000.43,0000.48,18.7,25.0,06.4,04.3,0666.9,31.0
2021-08-08T03:19:00Z,00000200,00000000,0002.09,0000.99,0000.98,0000.76,-000.01,0000.48,0000.49,0000.46,0000.28,18.7,25.0,06.4,04.4,0666.9,31.1
2021-08-08T03:20:00Z,00000200,00000000,0002.26,0001.44,0001.23,0000.24,0000.40,0000.35,0000.44,0000.56,0000.36,18.7,25.0,06.4,04.4,0666.9,31.0
2021-08-08T03:21:00Z,00000200,00000000,0001.68,0001.59,0001.10,0000.50,0000.07,0000.55,0000.03,0000.15,0000.49,18.6,25.0,06.4,04.4,0666.8,31.0
2021-08-08T03:22:00Z,00000200,00000000,0002.33,0001.34,0001.09,0000.85,0000.08,-000.09,0000.38,0000.31,0000.16,18.7,25.0,06.5,04.4,0666.8,31.0
2021-08-08T03:23:00Z,00000200,00000000,0001.57,0001.79,0000.74,0000.15,0000.18,0000.14,0000.76,0000.47,0000.61,18.7,25.0,06.5,04.4,0666.9,31.1
2021-08-08T03:24:00Z,00000200,00000000,0002.25,0001.52,0001.49,-000.05,0000.06,0000.15,0000.40,0000.24,0000.02,18.7,25.0,06.5,04.4,0666.8,31.0
2021-08-08T03:25:00Z,00000200,00000000,0002.49,0001.55,0000.97,-000.25,0000.24,0000.11,0000.03,0000.38,0000.28,18.8,25.1,06.3,04.3,0666.7,31.0
2021-08-08T03:26:00Z,00000200,00000000,0001.88,0001.60,0001.38,-000.03,0000.33,0000.54,0000.83,0000.53,0000.29,18.8,25.1,06.4,04.4,0666.8,31.1
2021-08-08T03:27:00Z,00000200,00000000,0001.85,0001.60,0000.96,0000.13,0000.19,0000.63,-000.10,0000.07,-000.10,18.8,25.1,06.4,04.4,0666.7,31.1
2021-08-08T03:28:00Z,00000200,00000000,0001.82,0001.86,0001.18,0000.45,0000.43,0000.48,0000.49,0000.25,0000.56,18.8,25.1,06.2,04.3,0666.7,31.1
2021-08-08T03:29:00Z,00000200,00000000,0002.16,0001.76,0001.39,0000.68,0000.27,0000.57,0000.36,0000.33,0000.34,18.8,25.1,06.3,04.3,0666.7,31.1
2021-08-08T03:30:00Z,00000200,00000000,0001.90,0001.79,0001.14,0000.20,0000.18,0000.21,-000.09,0000.44,-000.05,18.8,25.1,06.2,04.2,0666.7,31.1
2021-08-08T03:31:00Z,00000200,00000000,0003.23,0001.76,0001.31,0000.37,0000.32,0000.19,0000.64,0000.52,0000.57,18.8,25.1,06.1,04.2,0666.7,31.0
2021-08-08T03:32:00Z,00000200,00000000,0002.31,0001.79,0001.38,0000.51,0000.02,0000.24,0000.89,0000.45,0000.78,18.8,25.1,06.2,04.2,0666.7,31.0
2021-08-08T03:33:00Z,00000200,00000000,0002.11,0001.43,0001.05,0000.50,0000.38,0000.20,0000.24,0000.60,0000.29,18.8,25.1,06.4,04.3,0666.8,31.0
2021-08-08T03:34:00Z,00000200,00000000,0002.45,0001.82,0001.31,0000.52,-000.05,0000.19,0000.50,0000.26,0000.53,18.8,25.1,06.3,04.3,0666.8,31.0
2021-08-08T03:35:00Z,00000200,00000000,0002.65,0001.43,0001.27,0000.24,0000.39,0000.24,0000.29,0000.45,0000.21,18.7,25.1,06.4,04.3,0666.8,31.0
2021-08-08T03:36:00Z,00000200,00000000,0002.38,0001.58,0001.25,0000.72,0000.08,0000.45,0000.69,0000.59,0000.40,18.7,25.1,06.3,04.3,0666.8,31.0
2021-08-08T03:37:00Z,00000200,00000000,0002.33,0001.46,0001.20,-000.10,0000.08,0000.39,0000.15,0000.09,-000.03,18.7,25.0,06.4,04.4,0666.8,31.0
2021-08-08T03:38:00Z,00000200,00000000,0002.83,0001.56,0000.97,0000.19,-000.12,0000.48,0000.31,-000.17,0000.29,18.7,25.0,06.4,04.4,0666.8,31.0
2021-08-08T03:39:00Z,00000200,00000000,0002.17,0002.04,0001.46,0000.10,0000.10,0000.43,0000.20,0000.50,0000.06,18.7,25.0,06.2,04.2,0666.8,31.0
2021-08-08T03:40:00Z,00000200,00000000,0002.36,0001.49,0001.27,0000.55,0000.42,0000.37,0000.35,0000.28,0000.50,18.7,25.0,06.2,04.2,0666.9,31.0
2021-08-08T03:41:00Z,00000200,00000000,0002.34,0001.53,0001.25,0000.54,0000.19,0000.35,0000.83,0000.97,0000.45,18.7,25.0,06.2,04.2,0666.8,31.0
2021-08-08T03:42:00Z,00000200,00000000,0002.35,0001.71,0001.17,0000.56,0000.16,0000.21,0000.27,0000.42,0000.24,18.7,25.0,06.3,04.3,0666.8,31.0
2021-08-08T03:43:00Z,00000200,00000000,0001.96,0001.99,0000.82,0000.20,0000.19,0000.31,0000.10,0000.17,0000.25,18.6,25.0,06.3,04.3,0666.8,31.0
2021-08-08T03:44:00Z,00000200,00000000,0001.77,0002.04,0001.41,0000.69,-000.05,0000.45,0000.80,0000.31,0000.29,18.6,25.0,06.2,04.2,0666.8,31.0
2021-08-08T03:45:00Z,00000200,00000000,0002.51,0001.61,0001.45,0000.36,0000.05,0000.76,0000.37,0000.04,0000.12,18.6,25.0,06.1,04.2,0666.8,31.0
2021-08-08T03:46:00Z,00000200,00000000,0002.78,0001.69,0001.52,0000.17,0000.36,0000.41,0000.28,0000.40,0000.37,18.6,25.0,06.1,04.1,0666.8,31.0
2021-08-08T03:47:00Z,00000200,00000000,0001.84,0001.83,0001.10,0000.49,0000.12,0000.40,0000.14,0000.20,0000.26,18.6,25.0,06.0,04.1,0666.8,31.0
2021-08-08T03:48:00Z,00000200,00000000,0002.32,0001.83,0001.17,0000.56,0000.11,0000.42,0000.30,0000.28,0000.40,18.6,25.0,06.1,04.1,0666.8,31.0
2021-08-08T03:49:00Z,00000200,00000000,0003.02,0001.77,0001.09,0000.65,0000.37,0000.10,0000.30,0000.55,0000.25,18.6,25.0,06.0,04.0,0666.8,31.0
2021-08-08T03:50:00Z,00000200,00000000,0002.71,0001.45,0001.04,0000.46,0000.11,0000.44,-000.01,-000.28,-000.41,18.6,24.9,05.8,03.9,0666.8,31.0
2021-08-08T03:51:00Z,00000200,00000000,0002.59,0001.62,0001.17,0000.25,0000.41,0000.30,0000.20,0000.43,0000.39,18.6,24.9,05.6,03.8,0666.8,31.0
2021-08-08T03:52:00Z,00000200,00000000,0002.55,0001.50,0000.93,0000.54,0000.18,0000.04,0000.44,0000.42,0000.09,18.6,24.9,05.7,03.8,0666.8,31.0
2021-08-08T03:53:00Z,00000200,00000000,0001.76,0001.99,0001.02,0000.53,0000.38,0000.11,0000.55,0000.38,0000.68,18.6,24.9,05.6,03.8,0666.8,31.0
2021-08-08T03:54:00Z,00000200,00000000,0002.31,0001.53,0000.89,0000.35,-000.02,0000.30,-000.11,-000.14,-000.36,18.6,24.9,05.5,03.8,0666.8,31.0
2021-08-08T03:55:00Z,00000200,00000000,0002.71,0001.45,0001.40,0000.16,0000.29,0000.32,0000.57,0000.31,0000.25,18.7,25.0,05.4,03.7,0666.8,31.0
2021-08-08T03:56:00Z,00000200,00000000,0002.63,0001.37,0001.12,0000.57,0000.11,0000.19,-000.04,-000.09,-000.06,18.6,25.0,05.2,03.5,0666.8,31.0
2021-08-08T03:57:00Z,00000200,40000000,,,,,,,0000.58,0000.80,0000.77,18.7,25.0,05.1,03.5,0666.7,31.0
2021-08-08T03:58:00Z,00000200,60000000,,,,,,,-000.16,-000.12,-000.52,18.5,25.2,05.5,03.6,0665.8,31.0
2021-08-08T03:59:00Z,00000200,20000000,,,,,,,-000.83,-000.84,-000.65,18.4,25.3,05.3,03.5,0665.8,31.0
